Flag for Germany Weather past 2 weeks in Niederkassel, North Rhine-Westphalia, Germany

Now
71 °F

Overcast.


Feels Like: 71 °F
Forecast: 72 / 98 °F
Wind: 5 mph from Northwest

Location: Bonn-Hangelar

Current Time: Jul 3, 2015 at 2:12:18 AM

Latest Report: Jul 3, 2015 at 1:00 AM


Visibility: 7 mi

Pressure: 30.18 "Hg

Humidity: 81%

Dew point: 64 °F

Location of NiederkasselLocation

Historic Weather in Niederkassel — Graph

°F

Niederkassel temperature yesterday

Maximum temperature yesterday: 94 °F (at 4:00 PM)
Minimum temperature yesterday: 73 °F (at 11:00 PM)
Average temperature yesterday: 83 °F

Past Weeks' High & Low Weather Summary

 TemperatureHumidityPressure
High94 °F (Jul 2, 4:00 PM)100% (Jun 18, 4:00 AM)30.21 "Hg (Jun 18, 4:00 AM)
Low47 °F (Jun 23, 1:00 AM)32% (Jun 30, 7:00 PM)29.72 "Hg (Jun 22, 8:00 PM)
Average63 °F74%30.07 "Hg
* Reported Jun 18 1:00 AM — Jul 3 1:00 AM, Niederkassel, Weather by CustomWeather, © 2015

Note: Actual official high and low records may vary slightly from our data, if they occured in-between our weather recording intervals... More about our weather records

Advertising

Niederkassel weather history for previous 24 hours

 ConditionsComfort  
Time TempWeatherWind HumidityBarometerVisibility
1:00 AM
Fri, Jul 3
71 °FOvercast.5 mph81%30.18 "Hg7 mi
12:00 AM70 °FPassing clouds.2 mph84%30.16 "Hg6 mi
11:00 PM
Thu, Jul 2
73 °FOvercast.3 mph78%30.14 "Hg8 mi
10:00 PM76 °FClear.3 mph73%30.10 "Hg9 mi
9:00 PM79 °FOvercast.5 mph69%30.09 "Hg7 mi
8:00 PM81 °FPartly sunny.3 mph67%30.06 "Hg7 mi
7:00 PM85 °FOvercast.7 mph62%30.03 "Hg11 mi
6:00 PM90 °FOvercast.6 mph43%30.01 "Hg22 mi
5:00 PM93 °FOvercast.5 mph37%30.00 "Hg19 mi
4:00 PM94 °FOvercast.7 mph32%30.00 "Hg14 mi
3:00 PM93 °FSunny.6 mph39%29.99 "Hg16 mi
2:00 PM93 °FPassing clouds.3 mph40%30.01 "Hg22 mi
1:00 PM91 °FSunny.2 mph46%30.01 "Hg19 mi
12:00 PM90 °FSunny.1 mph45%30.01 "Hg19 mi
11:00 AM89 °FSunny.1 mph49%30.02 "Hg22 mi
10:00 AM84 °FSunny.2 mph55%30.03 "Hg19 mi
9:00 AM83 °FSunny.1 mph58%30.03 "Hg22 mi
8:00 AM78 °FSunny.2 mph60%30.03 "Hg22 mi
7:00 AM77 °FSunny.6 mph58%30.01 "Hg14 mi
6:00 AM76 °FSunny.6 mph56%30.00 "Hg17 mi
5:00 AM77 °FClear.5 mph52%30.00 "Hg25 mi
4:00 AM77 °FClear.5 mph50%30.00 "Hg25 mi
3:00 AM76 °FClear.5 mph52%30.01 "Hg22 mi
2:00 AM74 °FClear.5 mph53%30.01 "Hg25 mi
Weather by CustomWeather, © 2015

See weather overviewHow to use our weather pages